Voltar ao catálogo

METEOR 2-9

AtivoMeteoPO
NORAD 13718·PAYLOAD·🇷🇺 Russia

Lançado Dec 14, 1982 de Plesetsk Cosmodrome

Loading…

Próximas Passagens (próximas 24 horas)

TLE

AtualizadoSource: Space-Track

Época: Sep 14, 2026, 10:30 UTC

1 13718U 82116A   26257.43813589 -.00000019  00000-0 -16205-4 0  9991
2 13718  81.2463 259.5935 0054191  66.0999 294.5839 14.15956058259003

Acompanhe METEOR 2-9 em tempo real com AllMySat

Download on the App Store